Location: Unspecified
(41.9031°N, 12.4386°E)
Time: 17:12:36
(UTC+02:00)

ISS - Pass Details

Date: 25 May 2020
Orbit: 417 x 420 km, 51.6° (Epoch: 26 May)

Event Time Altitude Azimuth Distance (km) Brightness Sun altitude
Rises 00:44:56 0° 305° (NW) 2,368 0.6 -26.9°
Reaches altitude 10° 00:47:02 10° 305° (NW) 1,501 -0.5 -26.9°
Enters shadow 00:47:37 14° 306° (NW) 1,267 -0.9 -26.9°
